Chillicothe, MO

9:46 PM CST on February 11, 2016 (GMT -0600)
Chillicothe

Weather History for KCDJ - February, 2013

Change the Weather History Date:

Saturday, February 23, 2013

  Actual Average (KIRK) Record (KIRK)
Temperature  
Mean Temperature 16 °F 32 °F  
Max Temperature 30 °F 41 °F - ()
Min Temperature 1 °F 23 °F - ()
Degree Days  
Heating Degree Days 50 33  
Month to date heating degree days 827  
Since 1 July heating degree days 4374  
Cooling Degree Days 0 0  
Month to date cooling degree days 0  
Year to date cooling degree days 0  
Moisture  
Dew Point 11 °F    
Average Humidity 75    
Maximum Humidity 100    
Minimum Humidity 58    
Precipitation  
Precipitation 0.00 in 0.06 in - ()
Month to date precipitation 1.25  
Year to date precipitation 2.52  
Sea Level Pressure  
Sea Level Pressure 30.08 in    
Wind  
Wind Speed 2 mph (South)    
Max Wind Speed 9 mph    
Max Gust Speed -    
T = Trace of Precipitation, MM = Missing Value Source: NWS Daily Summary

Daily Weather History Graph

Daily Weather History Graph

Search for Another Location

Airport or City:

Trip Planner

Search our weather history database for the weather conditions in past years. The results will help you decide how hot, cold, wet, or windy it might be!

Date:

Astronomy

Feb. 23, 2013 Rise Set
Actual Time 6:55 AM CST 6:00 PM CST
Civil Twilight 6:28 AM CST 6:27 PM CST
Nautical Twilight 5:57 AM CST 6:58 PM CST
Astronomical Twilight 5:25 AM CST 7:29 PM CST
Moon 4:11 PM CST (2/23) 5:18 AM CST (2/23)
Length of Visible Light 11h 58m
Length of Day
11h 04m
Waxing Gibbous, 95% of the Moon is Illuminated
Feb 23
Waxing Gibbous
Feb 25
Full
Mar 4
Last Quarter
Mar 11
New
Mar 19
First Quarter

Hourly Weather History & Observations

Time (CST) Temp. Windchill Dew Point Humidity Pressure Visibility Wind Dir Wind Speed Gust Speed Precip Events Conditions
12:52 AM 12.0 °F - 8.1 °F 84% 30.12 in - Calm Calm - N/A   Unknown
1:52 AM 10.0 °F - 6.1 °F 84% 30.12 in - Calm Calm - N/A   Unknown
2:52 AM 9.0 °F - 3.9 °F 80% 30.12 in - Calm Calm - N/A   Unknown
3:52 AM 6.1 °F - 1.0 °F 80% 30.12 in - Calm Calm - N/A   Unknown
4:52 AM 3.9 °F - -0.0 °F 84% 30.11 in - Calm Calm - N/A   Unknown
5:52 AM 3.0 °F - -2.0 °F 80% 30.12 in - Calm Calm - N/A   Unknown
6:52 AM 1.9 °F - -2.0 °F 83% 30.12 in - Calm Calm - N/A   Unknown
7:52 AM 3.9 °F - 1.9 °F 91% 30.11 in - Calm Calm - N/A   Unknown
8:52 AM 12.9 °F - 12.9 °F 100% 30.11 in - Calm Calm - N/A   Unknown
9:52 AM 18.0 °F - 12.9 °F 81% 30.10 in - Calm Calm - N/A   Unknown
10:52 AM 21.0 °F 14.6 °F 12.9 °F 71% 30.10 in - South 4.6 mph - N/A   Unknown
11:52 AM 25.0 °F 20.7 °F 14.0 °F 63% 30.10 in - South 3.5 mph - N/A   Unknown
12:52 PM 27.0 °F 20.5 °F 16.0 °F 63% 30.07 in - South 5.8 mph - N/A   Unknown
1:52 PM 28.9 °F 21.9 °F 17.1 °F 61% 30.06 in - South 6.9 mph - N/A   Unknown
2:52 PM 30.0 °F 21.7 °F 17.1 °F 59% 30.05 in - South 9.2 mph - N/A   Unknown
3:52 PM 30.0 °F 22.4 °F 17.1 °F 59% 30.04 in - South 8.1 mph - N/A   Unknown
4:52 PM 30.0 °F 23.2 °F 17.1 °F 59% 30.04 in - South 6.9 mph - N/A   Unknown
5:52 PM 28.9 °F 22.8 °F 16.0 °F 58% 30.04 in - South 5.8 mph - N/A   Unknown
6:52 PM 26.1 °F 20.5 °F 16.0 °F 66% 30.04 in - SSE 4.6 mph - N/A   Unknown
7:52 PM 24.1 °F 18.2 °F 16.0 °F 71% 30.04 in - SE 4.6 mph - N/A   Unknown
8:52 PM 19.9 °F 13.4 °F 15.1 °F 81% 30.04 in - South 4.6 mph - N/A   Unknown
9:52 PM 18.0 °F - 12.9 °F 81% 30.07 in - Calm Calm - N/A   Unknown
10:52 PM 17.1 °F 10.0 °F 12.9 °F 84% 30.06 in - SSW 4.6 mph - N/A   Unknown
11:52 PM 19.0 °F 12.3 °F 14.0 °F 81% 30.06 in - South 4.6 mph - N/A   Unknown